Погода в Селятино

Россия / Московская область     55°31′03″N   36°57′31″E
темп.,
°C
ветер,
м/с
пор.,
м/с
влажн.,
%
обл.,
%
осадки,
мм/ч
давл.,
гПа
погр.,
м
7 марта, вс
вс700:00−10юз399021 0.0 1013228
03:00−9юз5138649 0.0 1009542
06:00−7юз71491100 0.6 1004930
09:00−5юз81691100 1.7 9991152
12:00−2юз81591100 1.5 9961154
15:00−2сз61085100 3.6 9941012
18:00−5з3791100 0.8 993346
21:00−5зюз61387100 0.8 995912
8 марта, пн
пн800:00−8з4109538 0.3 996402
03:00−8зюз4129256 0.7 996455
06:00−7зюз5119394 0.2 995823
09:00−8зсз6118697 0.8 997925
12:00−6сз5876100 0.1 10011020
15:00−6зсз4779100 0.1 1004978
18:00−8зсз2787100 0.1 1007292
21:00−11ссз279584 0.2 1009165
9 марта, вт
вт900:00−14ссз259747 0.0 101195
03:00−15ссз279755 0.0 1013204
06:00−16ссз269881 0.0 1015186
09:00−15ссз369176 0.0 1017346
12:00−12ссз358194 0.0 1018658
15:00−11ссз467797 0.1 1018892
18:00−13ссз3788100 0.0 1019288
21:00−17ссз239579 0.1 102265
10 марта, ср
ср1000:00−20с229812 0.0 102422
03:00−22с229613 0.0 102538
06:00−23ссв229687 0.0 102662
09:00−20всв238872 0.0 1027220
12:00−15всв23690 0.0 1028454
15:00−12всв22660 0.0 1028585
18:00−15всв12850 0.0 102820
21:00−19св12900 0.0 103020
11 марта, чт
чт1100:00−20св11910 0.0 103120
03:00−21всв11930 0.0 103220
06:00−22ююз01930 0.0 103220
09:00−17ю01820 0.0 1033121
12:00−11ю12660 0.0 1032482
15:00−9ю23660 0.0 1032768
18:00−13ю23860 0.0 103185
21:00−16ю38910 0.0 1031199